#timestamp,LO_Frequency,Hit,StdDev 
1510610415.6,286046999.5,N
1510610435.4,286046999.2,N
1510610455.3,286046995.7,N
1510610475.1,286046996.4,N
1510610476.0,286046996.4,N
1510610495.8,286046997.2,N
1510610515.7,286046995.9,N
1510610535.5,286046995.2,N
1510610555.3,286046994.3,N
1510610575.1,286046994.7,N
1510610595.9,286046997.6,N
1510610615.7,286046994.4,N
1510610635.5,286046992.6,N
1510610655.4,286046992.0,N
1510610675.2,286046992.4,N
1510610695.0,286046988.2,Y
1510610695.9,286046988.2,P
1510610715.8,286046989.0,N
1510610735.6,286046991.0,N
1510610755.4,286046988.5,Y
1510610775.3,286046996.2,P
1510610795.1,286046997.9,N
1510610815.8,286046997.7,N
1510610835.7,286046994.7,N
1510610855.5,286046991.9,Y
1510610875.3,286046999.0,P
1510610895.2,286046999.6,N
1510610915.9,286047000.1,N
1510610935.7,286046999.7,N
1510610955.6,286047002.4,N
1510610975.4,286047004.4,N
1510610995.2,286047003.1,N
1510611015.1,286047007.6,N
1510611016.0,286047007.6,N
1510611035.8,286047008.0,N
1510611055.6,286047006.2,N
1510611075.5,286047006.4,N
1510611095.3,286047009.4,N
1510611115.1,286047013.8,Y
1510611135.9,286047007.4,P
1510611155.7,286047003.2,N
1510611175.5,286046998.1,N
1510611195.3,286046999.4,N
1510611215.2,286047001.4,N
1510611235.0,286047002.7,N
1510611235.9,286047002.7,N
1510611255.7,286046996.6,N
1510611275.6,286047001.0,N
1510611295.4,286047000.0,N
1510611315.2,286046997.0,N
1510611335.1,286046993.6,N
1510611336.0,286046993.6,N
1510611355.8,286046994.0,N
1510611375.6,286046997.6,N
1510611395.5,286046996.9,N
1510611415.3,286046996.6,N
1510611435.1,286046995.4,N
1510611455.9,286046993.3,N
1510611475.7,286046990.3,N
1510611495.5,286046992.9,N
1510611515.3,286046994.4,N
1510611535.2,286046997.9,N
1510611555.0,286046995.2,N
1510611555.9,286046995.2,N
1510611575.7,286046998.1,N
1510611595.6,286046999.6,N
1510611615.4,286046996.7,N
1510611635.2,286046999.4,N
1510611655.1,286046997.8,N
1510611656.0,286046997.8,N
1510611675.8,286046990.5,Y
1510611695.6,286046993.9,P
1510611715.5,286046994.0,P
1510611735.3,286046995.2,P
1510611755.1,286046993.5,Y
1510611775.9,286046999.9,P
1510611795.7,286047002.8,N
1510611815.5,286046999.8,N
1510611835.4,286046999.7,N
1510611855.2,286046999.9,N
1510611875.0,286047004.6,N
1510611875.9,286047004.6,N
1510611895.8,286047003.4,N
1510611915.6,286047001.5,N
1510611935.4,286047006.7,N
1510611955.3,286047010.6,Y
1510611975.1,286047007.4,P
1510611976.0,286047007.4,N
1510611995.8,286047006.9,N
1510612015.7,286047003.1,N
1510612035.5,286047007.2,N
1510612055.3,286047007.6,Y
1510612075.2,286047000.3,P
1510612095.9,286047000.2,N
1510612115.7,286046999.2,N
1510612135.5,286047001.8,N
1510612155.4,286047002.7,N
1510612175.2,286046998.5,N
1510612195.0,286046999.6,N
1510612195.9,286046999.6,N
1510612215.8,286046998.4,N
1510612235.6,286047002.0,N
1510612255.4,286047003.7,N
1510612275.3,286047004.1,N
1510612295.1,286047005.0,N
1510612296.0,286047005.0,N
1510612315.8,286047004.5,N
1510612335.7,286047004.4,N
1510612355.5,286047004.3,N
1510612375.3,286047007.6,Y
1510612395.2,286047006.9,P
1510612415.9,286047005.4,N
1510612435.7,286047001.3,N
1510612455.6,286047003.1,N
1510612475.4,286047005.5,N
1510612495.2,286047003.4,N
1510612515.1,286047008.4,Y
1510612516.0,286047008.4,P
1510612535.8,286047008.5,P
1510612555.6,286047008.6,P
1510612575.5,286047007.8,Y
1510612595.3,286047003.3,P
1510612615.1,286047005.1,N
1510612635.9,286047008.6,P
1510612655.7,286047009.1,Y
1510612675.5,286047005.9,P
1510612695.4,286047006.4,P
1510612715.2,286047004.8,P
1510612735.0,286047005.0,Y
1510612735.9,286047005.0,P
1510612755.8,286047002.6,P
1510612775.6,286047001.2,N
1510612795.4,286047000.6,N
1510612815.3,286046998.9,N
1510612835.1,286047000.3,N
1510612836.0,286047000.3,N
1510612855.8,286047000.5,N
1510612875.6,286047000.5,N
1510612895.5,286047001.3,N
1510612915.3,286047002.4,N
1510612935.1,286046999.8,N
1510612955.9,286047004.4,N
1510612975.7,286047001.3,N
1510612995.5,286047000.0,N
1510613015.4,286047000.2,N
1510613035.2,286047004.2,N
1510613055.0,286047003.8,N
1510613055.9,286047003.8,N
1510613075.8,286047001.6,N
1510613095.6,286046999.7,N
1510613115.4,286047002.3,N
1510613135.3,286047005.0,N
1510613155.1,286047005.7,N
1510613156.0,286047005.7,N
1510613175.8,286047003.4,N
1510613195.7,286047003.6,N
1510613215.5,286046999.3,N
1510613235.3,286046999.5,N
1510613255.1,286046995.4,N
1510613275.9,286046999.0,N
1510613295.7,286046996.7,N
1510613315.5,286046998.9,N
1510613335.4,286046997.5,N
1510613355.2,286046997.9,N
1510613375.0,286046993.5,N
1510613375.9,286046993.5,N
1510613395.8,286046993.5,N
1510613415.6,286046991.1,N
1510613435.4,286046989.5,N
1510613455.3,286046985.6,Y
1510613475.1,286046989.5,P
1510613495.8,286046989.4,N
1510613515.7,286046987.6,N
1510613535.5,286046988.0,N
1510613555.3,286046987.1,N
1510613575.2,286046990.7,N
1510613595.9,286046990.4,N
1510613615.7,286046991.5,N
1510613635.5,286046992.6,N
1510613655.4,286046992.3,N
1510613675.2,286046994.4,N
1510613695.0,286046996.7,N
1510613695.9,286046996.7,N
1510613715.8,286046996.8,N
1510613735.6,286046999.6,N
1510613755.4,286046993.5,N
1510613775.3,286046990.6,N
1510613795.1,286046990.4,N
1510613796.0,286046990.4,N
1510613815.8,286046989.1,N
1510613835.7,286046991.3,N
1510613855.5,286046987.2,Y
1510613875.3,286046995.6,P
1510613895.2,286046994.4,P
1510613915.9,286046993.8,P
1510613935.7,286046997.0,N
1510613955.6,286046997.1,N
1510613975.4,286046997.4,N
1510613995.2,286047000.5,N
